LUCH 5V

导读 | 豆包AI

LUCH 5V,又名“光芒5V”,是由独联体(CIS)发射的军用中继通信卫星,于2014年4月28日北京时间8点在哈萨克斯坦拜科努尔航天发射场升空。卫星定轨地球静止轨道,主要为俄罗斯军方提供数据中继、导弹试验测控和空间态势感知服务,是俄罗斯“射线”(Luch)系列军用卫星组网的关键节点,增强了俄军对高轨和低轨航天器的通信支持能力。

基本信息
目录编号:
39727
目录名称:
LUCH 5V
国际标识:
2014-023A
轨道中心:
EARTH
卫星名称:
LUCH 5V
卫星全名:
--
卫星状态:
在轨 (已飞行4328 天)
发射日期:
2014-04-28 UTC
国别 :
俄罗斯(独联体) (CIS)
星等 :
--
轨道信息
数据来源 国际轨道数据 AOE轨道数据
星历时间 2026-03-04T10:30:24+0800
5小时前
查看轨道信息
2026-03-04T07:00:00+0800
9小时前
查看轨道信息
半长轴 42164.728km 42164.672km
偏心率 0.0002986 0.0002938
轨道倾角 4.874° 4.873°
近地点辐角 278.047° 276.700°
升交点赤经 70.777° 70.778°
平近点角 305.362° 253.965°
近地点 35774km 35774.147km
远地点 35799.182km 35798.923km
周期 1436.097分钟 1436.094分钟
每日圈数 1.002718 1.00272
详细信息
使用方式:
暂无
2D轨道图
3D轨道图
轨道高度分析图
轨道倾角分析图
轨道综合分析图
查看轨道综合分析图